Phillips, WI

8:59 PM CST on February 09, 2016 (GMT -0600)
Price County

Weather History for KPBH - May, 2013

Change the Weather History Date:

Thursday, May 9, 2013

  Actual Average Record
Temperature  
Mean Temperature 48 °F -  
Max Temperature 60 °F 60 °F 78 °F (2007)
Min Temperature 35 °F 39 °F 30 °F (1999)
Degree Days  
Heating Degree Days 18    
Moisture  
Dew Point 43 °F    
Average Humidity 78    
Maximum Humidity 100    
Minimum Humidity 55    
Precipitation  
Precipitation 0.00 in - - ()
Sea Level Pressure  
Sea Level Pressure 30.06 in    
Wind  
Wind Speed 10 mph (NE)    
Max Wind Speed 20 mph    
Max Gust Speed 26 mph    
Visibility 10 miles    
Events Rain    
Averages and records for this station are not official NWS values.
T = Trace of Precipitation, MM = Missing Value Source: NWS Daily Summary

Daily Weather History Graph

Daily Weather History Graph

Search for Another Location

Airport or City:

Trip Planner

Search our weather history database for the weather conditions in past years. The results will help you decide how hot, cold, wet, or windy it might be!

Date:

Astronomy

May. 09, 2013 Rise Set
Actual Time 5:37 AM CDT 8:19 PM CDT
Civil Twilight 5:03 AM CDT 8:53 PM CDT
Nautical Twilight 4:20 AM CDT 9:36 PM CDT
Astronomical Twilight 3:30 AM CDT 10:26 PM CDT
Moon 5:23 AM CDT (5/9) 8:14 PM CDT (5/9)
Length of Visible Light 15h 49m
Length of Day
14h 41m
Waning Crescent, 0% of the Moon is Illuminated
May 9
Waning Crescent
May 9
New
May 17
First Quarter
May 24
Full
May 31
Last Quarter

Hourly Weather History & Observations

Time (CDT) Temp. Windchill Dew Point Humidity Pressure Visibility Wind Dir Wind Speed Gust Speed Precip Events Conditions
12:15 AM 60.8 °F - 44.6 °F 55% 30.01 in 10.0 mi NE 6.9 mph - N/A   Overcast
12:35 AM 60.8 °F - 44.6 °F 55% 30.00 in 10.0 mi NNE 9.2 mph - N/A   Overcast
1:15 AM 60.8 °F - 44.6 °F 55% 30.00 in 10.0 mi NE 4.6 mph - N/A   Mostly Cloudy
2:35 AM 59.0 °F - 42.8 °F 55% 29.99 in 10.0 mi NE 9.2 mph - N/A   Overcast
2:55 AM 59.0 °F - 42.8 °F 55% 29.99 in 10.0 mi NNE 6.9 mph - N/A   Overcast
3:15 AM 57.2 °F - 42.8 °F 59% 30.00 in 10.0 mi NNE 8.1 mph - N/A   Overcast
3:35 AM 57.2 °F - 42.8 °F 59% 29.99 in 10.0 mi NE 5.8 mph - N/A   Overcast
3:55 AM 57.2 °F - 42.8 °F 59% 29.99 in 10.0 mi NNE 6.9 mph - N/A   Overcast
4:35 AM 57.2 °F - 42.8 °F 59% 29.99 in 10.0 mi NNE 5.8 mph - N/A   Overcast
5:15 AM 55.4 °F - 42.8 °F 63% 29.99 in 10.0 mi NNE 3.5 mph - N/A   Overcast
5:35 AM 55.4 °F - 42.8 °F 63% 29.99 in 10.0 mi NE 4.6 mph - N/A   Overcast
5:55 AM 55.4 °F - 44.6 °F 67% 29.99 in 10.0 mi NNE 5.8 mph - N/A   Scattered Clouds
6:35 AM 57.2 °F - 44.6 °F 63% 30.01 in 10.0 mi NNE 6.9 mph - N/A   Scattered Clouds
6:55 AM 57.2 °F - 44.6 °F 63% 30.01 in 10.0 mi NNE 8.1 mph - N/A   Clear
7:15 AM 57.2 °F - 44.6 °F 63% 30.03 in 10.0 mi NNE 4.6 mph - N/A   Clear
7:55 AM 57.2 °F - 44.6 °F 63% 30.04 in 10.0 mi NNE 8.1 mph - N/A   Mostly Cloudy
8:15 AM 57.2 °F - 44.6 °F 63% 30.04 in 10.0 mi NNE 9.2 mph - N/A   Scattered Clouds
8:35 AM 57.2 °F - 44.6 °F 63% 30.04 in 10.0 mi NNE 8.1 mph - N/A   Scattered Clouds
9:15 AM 57.2 °F - 44.6 °F 63% 30.04 in 10.0 mi NNE 8.1 mph - N/A   Overcast
9:35 AM 57.2 °F - 46.4 °F 67% 30.03 in 10.0 mi NNE 10.4 mph - N/A   Overcast
9:55 AM 59.0 °F - 46.4 °F 63% 30.03 in 10.0 mi NNE 10.4 mph - N/A   Mostly Cloudy
10:35 AM 60.8 °F - 46.4 °F 59% 30.03 in 10.0 mi NNE 12.7 mph 19.6 mph N/A   Scattered Clouds
10:55 AM 60.8 °F - 46.4 °F 59% 30.04 in 10.0 mi NE 13.8 mph - N/A   Clear
11:15 AM 60.8 °F - 46.4 °F 59% 30.04 in 10.0 mi NNE 12.7 mph 16.1 mph N/A   Clear
11:35 AM 60.8 °F - 46.4 °F 59% 30.05 in 10.0 mi NE 15.0 mph - N/A   Clear
12:15 PM 57.2 °F - 46.4 °F 67% 30.06 in 10.0 mi NNE 9.2 mph - N/A Rain Light Rain
12:55 PM 55.4 °F - 46.4 °F 72% 30.07 in 10.0 mi NNE 10.4 mph - N/A   Light Drizzle
1:15 PM 53.6 °F - 48.2 °F 82% 30.07 in 10.0 mi NE 15.0 mph 18.4 mph N/A Rain Light Rain
1:35 PM 51.8 °F - 48.2 °F 88% 30.07 in 10.0 mi NE 11.5 mph 20.7 mph N/A Rain Light Rain
1:55 PM 51.8 °F - 48.2 °F 88% 30.07 in 10.0 mi NE 12.7 mph 19.6 mph N/A Rain Light Rain
2:15 PM 50.0 °F - 46.4 °F 87% 30.08 in 10.0 mi NE 11.5 mph - N/A Rain Rain
2:35 PM 50.0 °F - 46.4 °F 87% 30.08 in 10.0 mi NNE 10.4 mph 17.3 mph N/A Rain Rain
2:55 PM 48.2 °F - 46.4 °F 93% 30.08 in 10.0 mi NNE 12.7 mph - N/A Rain Light Rain
3:15 PM 48.2 °F - 46.4 °F 93% 30.08 in 10.0 mi NNE 15.0 mph 20.7 mph N/A Rain Light Rain
3:35 PM 48.2 °F - 46.4 °F 93% 30.08 in 10.0 mi NNE 15.0 mph - N/A Rain Rain
3:55 PM 46.4 °F 40.4 °F 44.6 °F 93% 30.08 in 10.0 mi NNE 13.8 mph 24.2 mph N/A Rain Rain
4:15 PM 46.4 °F 39.0 °F 44.6 °F 93% 30.08 in 10.0 mi NNE 19.6 mph 26.5 mph N/A Rain Light Rain
4:35 PM 44.6 °F 37.8 °F 44.6 °F 100% 30.08 in 10.0 mi NNE 15.0 mph 24.2 mph N/A Rain Rain
4:55 PM 44.6 °F 37.8 °F 44.6 °F 100% 30.08 in 10.0 mi NNE 15.0 mph - N/A Rain Light Rain
5:15 PM 44.6 °F 38.8 °F 42.8 °F 93% 30.09 in 10.0 mi NNE 11.5 mph 18.4 mph N/A Rain Rain
5:35 PM 42.8 °F 36.2 °F 42.8 °F 100% 30.09 in 10.0 mi NNE 12.7 mph - N/A Rain Rain
5:55 PM 42.8 °F 35.8 °F 41.0 °F 93% 30.09 in 10.0 mi NNE 13.8 mph 20.7 mph N/A Rain Rain
6:15 PM 42.8 °F 35.8 °F 41.0 °F 93% 30.09 in 10.0 mi NNE 13.8 mph 20.7 mph N/A Rain Light Rain
6:35 PM 42.8 °F 37.0 °F 41.0 °F 93% 30.09 in 10.0 mi NNE 10.4 mph - N/A Rain Light Rain
6:55 PM 42.8 °F 37.0 °F 41.0 °F 93% 30.10 in 10.0 mi NE 10.4 mph 18.4 mph N/A Rain Light Rain
7:15 PM 41.0 °F 33.5 °F 41.0 °F 100% 30.10 in 10.0 mi NE 13.8 mph 19.6 mph N/A Rain Light Rain
7:35 PM 41.0 °F 34.3 °F 41.0 °F 100% 30.10 in 10.0 mi NE 11.5 mph - N/A   Light Drizzle
7:55 PM 41.0 °F 33.1 °F 39.2 °F 93% 30.10 in 10.0 mi NE 15.0 mph 19.6 mph N/A   Light Drizzle
8:15 PM 41.0 °F 34.3 °F 39.2 °F 93% 30.10 in 10.0 mi NE 11.5 mph - N/A Rain Light Rain
8:35 PM 39.2 °F 31.2 °F 39.2 °F 100% 30.11 in 10.0 mi NE 13.8 mph 23.0 mph N/A   Light Drizzle
8:55 PM 39.2 °F 31.6 °F 37.4 °F 93% 30.11 in 10.0 mi NE 12.7 mph 20.7 mph N/A   Overcast
9:15 PM 37.4 °F 28.9 °F 37.4 °F 100% 30.12 in 10.0 mi NE 13.8 mph 21.9 mph N/A   Overcast
9:35 PM 37.4 °F 29.8 °F 35.6 °F 93% 30.12 in 10.0 mi NE 11.5 mph 21.9 mph N/A   Overcast
9:55 PM 37.4 °F 28.5 °F 35.6 °F 93% 30.12 in 10.0 mi NE 15.0 mph 20.7 mph N/A   Mostly Cloudy
10:15 PM 35.6 °F 26.6 °F 35.6 °F 100% 30.12 in 10.0 mi NE 13.8 mph 18.4 mph N/A   Scattered Clouds
10:55 PM 37.4 °F 29.3 °F 35.6 °F 93% 30.12 in 10.0 mi NE 12.7 mph - N/A   Overcast
11:15 PM 37.4 °F 28.9 °F 35.6 °F 93% 30.12 in 10.0 mi NE 13.8 mph 18.4 mph N/A   Overcast
11:35 PM 37.4 °F 29.3 °F 33.8 °F 87% 30.12 in 10.0 mi NE 12.7 mph 19.6 mph N/A   Overcast